www.pogodaiklimat.ru
ПОГОДА в Уэстфилде
Время
и дата
18:53 23.01
19:53 23.01
20:53 23.01
21:53 23.01
22:53 23.01
23:53 23.01
00:53 24.01
01:53 24.01
02:53 24.01
03:53 24.01
04:53 24.01
05:53 24.01
06:53 24.01
07:53 24.01
08:53 24.01
09:53 24.01
10:53 24.01
11:53 24.01
12:53 24.01
13:53 24.01
14:53 24.01
15:53 24.01
16:53 24.01
17:53 24.01
18:53 24.01
19:53 24.01
20:53 24.01
21:53 24.01
22:53 24.01
23:53 24.01
00:53 25.01
01:53 25.01
02:53 25.01
03:53 25.01
04:53 25.01
05:53 25.01
06:53 25.01
07:53 25.01
08:53 25.01
09:53 25.01
10:53 25.01
11:53 25.01
12:53 25.01
13:53 25.01
14:53 25.01
15:53 25.01
16:53 25.01
17:53 25.01
Ветер
(напр.,м/с)
Видим. Явления Облачность Т
(С)
Тd
(С)
f
(%)
Тe
(С)
Тes
(С)
Комфортность P
(гПа)
Po
(гПа)
Тmin
(С)
Tmax
(С)
R
(мм)
R24
(мм)
S
(см)
СЗ 3
{4}
16 км ясно -7.2 -16.7 47 -15 -15 1018.3 1007.3 -7.2 -3.9
З 4
{6}
16 км ясно -7.8 -16.1 51 -17 -17 1018.6 1007.6
СЗ 4
{6}
16 км ясно -7.8 -16.1 51 -17 -17 1018.4 1007.6
С 3 16 км ясно -8.3 -16.7 51 -16 -16 1019.0 1008.0
СЗ 3
{6}
16 км ясно -8.9 -16.7 53 -18 -18 1019.1 1008.3
СЗ 3
{4}
16 км ясно -9.4 -16.7 55 -18 -18 1018.8 1008.0
СЗ 3
{4}
16 км ясно -9.4 -16.7 55 -18 -18 1018.3 1007.3 -9.4 -7.2
СЗ 4
{6}
16 км ясно -9.4 -16.7 55 -19 -19 1018.8 1008.0
СЗ 4
{6}
16 км ясно -9.4 -16.7 55 -19 -19 1018.5 1007.6
СЗ 4
{6}
16 км ясно -9.4 -17.2 53 -19 -19 1018.2 1007.3
СЗ 4
{7}
16 км ясно -10.0 -17.2 56 -21 -21 1018.9 1008.0
СЗ 4 16 км ясно -10.0 -17.2 56 -20 -20 1019.5 1008.6
СЗ 4
{5}
16 км ясно -10.0 -17.8 53 -20 -20 1019.3 1008.3 -10.6 -9.4
З 3 16 км ясно -10.0 -18.3 51 -19 -19 1019.5 1008.6
З 3 16 км ясно -8.3 -18.3 44 -17 -17 1019.5 1008.6
СЗ 2
{5}
16 км ясно -7.2 -19.4 37 -13 -12 1019.5 1008.6
СЗ 4
{4}
16 км ясно -5.6 -19.4 33 -14 -13 1018.9 1008.0
СЗ 5
{6}
16 км ясно -3.9 -18.3 32 -13 -13 1018.1 1007.3
СЗ 3
{5}
16 км ясно -2.8 -19.4 27 -9 -7 1017.3 1006.6 -10.0 -2.8
СЗ 4 16 км ясно -2.8 -19.4 27 -10 -10 1017.3 1006.3
СЗ 3
{6}
16 км ясно -2.8 -18.9 28 -10 -9 1017.7 1007.0
СЗ 3
{5}
16 км ясно -3.9 -18.3 32 -11 -10 1018.3 1007.3
СЗ 2 16 км ясно -5.0 -17.2 38 -11 -10 1018.8 1008.0
СЗ 2 16 км ясно -6.1 -16.7 43 -13 -13 1019.5 1008.6
СЗ 2 16 км ясно -6.7 -16.1 47 -14 -14 1019.6 1008.6 -6.7 -2.2
СЗ 1 16 км ясно -6.7 -16.1 47 -12 -12 1019.6 1008.6
З 3 16 км ясно -6.7 -15.6 49 -14 -14 1019.3 1008.3
нст 1 16 км ясно -7.2 -15.6 51 -12 -12 1019.1 1008.3
З 2 16 км ясно -7.2 -16.1 49 -14 -14 1019.4 1008.6
СЗ 1 16 км ясно -7.8 -16.1 51 -12 -12 1019.3 1008.3
С 1 16 км ясно -8.3 -16.1 53 -12 -12 1018.9 1008.0 -8.3 -6.7
С 1 16 км ясно -8.9 -16.7 53 -14 -14 1019.0 1008.3
штиль 0 16 км 2/0 3600 м
[Ac]
-9.4 -16.1 58 -10 -10 1019.2 1008.3
штиль 0 16 км 2/0 3600 м
[Ac]
-10.0 -16.7 58 -10 -10 1019.0 1008.3
СЗ 1 16 км ясно -10.0 -16.7 58 -14 -14 1019.4 1008.6
СЗ 1 16 км ясно -9.4 -16.7 55 -15 -15 1020.0 1009.0
СЗ 1 16 км ясно -8.9 -16.7 53 -13 -13 1020.2 1009.3 -10.0 -8.3
СЗ 1 16 км ясно -8.3 -16.1 53 -14 -14 1020.7 1009.6
С 2 16 км ясно -6.1 -16.1 45 -12 -12 1020.2 1009.3
С 1 16 км ясно -3.9 -16.1 38 -7 -5 1020.5 1009.6
СЗ 1 16 км ясно -1.7 -16.1 32 -6 -3 1019.8 1009.0
СЗ 2 16 км ясно 0.0 -15.6 30 -4 -1 1018.7 1008.0
СЗ 2 16 км ясно +1.1 -15.0 29 -4 -1 1017.9 1007.3 -9.4 +1.1
СЗ 2 16 км ясно +2.2 -13.9 29 -2 +1 1017.6 1007.0
СЗ 3 16 км ясно +2.2 -11.7 35 -3 -2 1018.0 1007.3
СЗ 2 16 км ясно +1.7 -11.1 38 -3 -2 1018.2 1007.3
СЗ 2 16 км ясно 0.0 -11.1 43 -5 -4 1018.1 1007.3
С 1 16 км ясно -1.7 -11.1 49 -6 -6 1018.7 1008.0
Местоположение метеостанции Barnes Municipal Airport: широта 42.1597 долгота -72.7128 высота над уровнем моря 82 м.
В архиве по умолчанию представлена погода в Уэстфилде за последние 1-2 суток. Обновление информации о фактической погоде в базе происходит ежечасно! Архивные данные за месяц целиком и за предыдущие месяцы Вы можете получить, выбрав интересующий диапазон дат из раскрывающегося списка и нажав кнопку "Ввод!".
Внимание! Архив погоды МЕТАР в базе сайта по станциям, не включенным в климатический монитор, хранится не более 60 дней. Нет смысла пытаться выбрать более раннюю дату.
*Определитесь, кто Вы:
Внимание! Время в таблицах - местное (без учета летнего времени). Для получения всемирного времени необходимо вычесть поправку, которая равна -5 ч.
Смотрите также архив погоды в соседних городах и на ближайших метеорологических станциях:
Партнеры нашего сайта:      
Пояснения к столбцам:
  • Ветер - указаны скорость ветра в м/с - средняя за 10 мин, порывы в срок и между сроками (в фигурных скобках) и направление, откуда дует ветер: С - северный,
  • СВ - северо-восточный, В - восточный, ЮВ - юго-восточный, Ю - южный, ЮЗ - юго-западный, З - западный, СЗ - северо-западный.
  • Видимость - горизонтальная дальность видимости в метрах или километрах. При видимости от 1 до 10 км при отсутствии осадков обычно наблюдается дымка, при ухудшении видимости до 1 км и менее - туман. В сухую погоду видимость может ухудшаться дымом, пылью или мглою.
  • Явления - указаны атмосферные явления, наблюдавшиеся в срок или в последний час перед сроком; фигурными скобками обозначены явления, наблюдавшиеся между сроками (за 1-3 часа до срока); квадратными скобками обозначены град или гололедные отложения с указанием их диаметра в мм.
  • Облачность - указаны через наклонную черту общая и нижняя облачность в баллах и высота нижней границы облаков в метрах; квадратными скобками обозначены формы облаков: Ci - перистые, Cs - перисто-слоистые, Cc - перисто-кучевые, Ac - высококучевые, As - высокослоистые, Sc - слоисто-кучевые, Ns - слоисто-дождевые, Cu - кучевые, Cb - кучево-дождевые. Подробнее классификацию облаков см. в Атласе облаков (PDF).
  • T - Температура воздуха - температура, измеренная на высоте 2 м над землей.
  • Td - Температура точки росы - температура, при понижении до которой содержащийся в воздухе водяной пар достигнет насыщения.
  • f - Относительная влажность воздуха - влажноcть воздуха, измеренная на высоте 2 м над землей.
  • Te - Эффективная температура - температура, которую ощущает одетый по сезону человек в тени. Характеристика душности погоды. При расчете учитывается влияние влажности воздуха и скорости ветра на теплоощущения человека.
  • Tes - Эффективная температура на солнце - температура, которую ощущает человек, с поправкой на солнечный нагрев. Характеристика знойности погоды. Зависит от высоты солнца над горизонтом, облачности и скорости ветра. Ночью, в пасмурную погоду, а также при ветре 12 м/с и более поправка равна нулю.
  • P - Атмосферное давление - приведенное к уровню моря атмосферное давление.
  • Po - Атмосферное давление - измеренное на уровне метеостанции атмосферное давление.
  • Tmin - Минимальная температура - минимум температуры воздуха на высоте 2 м над землей.
  • Tmax - Максимальная температура - максимум температуры воздуха на высоте 2 м над землей.
  • R - Количество осадков - Количество выпавших осадков за период времени, мм. При наведении курсора мыши на число - период времени, за который выпало указанное количество осадков.
  • R24 - Количество осадков - Количество выпавших осадков за 24 часа, мм.
  • S - Снежный покров - Высота снежного покрова, см. При наведении курсора мыши на число - состояние снежного покрова и степень покрытия местности в баллах.